Regional Weather Roundup
Issued by NWS

Home | Current Version | Previous Version | Graphics & Text | Print | Product List | Glossary On
Versions: 1 2 3 4 5 6 7 8 9 10 11 12 13 14 15 16 17 18 19 20 21 22 23 24 25 26 27 28 29 30 31 32 33 34 35 36 37 38 39 40 41 42 43 44 45 46 47 48 49 50
445
ASUS45 KCYS 211110
RWRWY

WYOMING REGIONAL WEATHER ROUNDUP
NATIONAL WEATHER SERVICE CHEYENNE WY
500 AM MDT THU SEP 21 2017

NOTE:  "FAIR" INDICATES FEW OR NO CLOUDS BELOW 12,000 FEET
WITH NO SIGNIFICANT WEATHER AND/OR OBSTRUCTIONS TO VISIBILITY.

WYZ001-211200-
YELLOWSTONE NATIONAL PARK

CITY           SKY/WX    TMP DP  RH WIND       PRES   REMARKS
LK YELLOWSTONE NOT AVBL
W YELLOWSTONE  NOT AVBL

$$
WYZ002>013-054>058-071-098>099-211200-
NORTHERN WYOMING

CITY           SKY/WX    TMP DP  RH WIND       PRES   REMARKS
JACKSON        CLOUDY    33  33 100 CALM      29.78F
CODY           LGT RAIN  44  41  89 W9        29.73S
GREYBULL       CLOUDY    50  45  83 NW16      29.69R
WORLAND        FAIR      48  42  80 NW7       29.69R
SHERIDAN       MOCLDY    50  39  66 NW9       29.72R
BUFFALO        FAIR      48  33  56 NW14      29.72R
GILLETTE       FAIR      43  37  79 NW3       29.65R
HULETT         FAIR      55  34  44 SE5       29.68F
NEWCASTLE      FAIR      59  32  36 SE16G23   29.68R

$$
WYZ014>020-022>026-101>103-211200-
CENTRAL WYOMING

CITY           SKY/WX    TMP DP  RH WIND       PRES   REMARKS
BIG PINEY      MOCLDY    38  35  89 NE3       29.76S
PINEDALE       CLOUDY    37  36  93 NW7       29.77S WCI  32
DUBOIS         LGT RAIN  34  32  93 NW8       29.74F WCI  27
LANDER           N/A    N/A N/A N/A MISG      29.68S
RIVERTON       FAIR      43  38  82 NW10      29.68R
CASPER         FAIR      42  35  76 NW7       29.67R
DOUGLAS        FAIR      51  31  46 SE17      29.68S

$$
WYZ021-027>030-104>119-211200-
SOUTHERN WYOMING

CITY           SKY/WX    TMP DP  RH WIND       PRES   REMARKS
EVANSTON       FAIR      41  38  89 N3        29.75F
KEMMERER         N/A     36  34  93 NW3       29.77S
FORT BRIDGER   FAIR      42  36  78 NW8       29.79R
ROCK SPRINGS   FAIR      52  31  44 SE6       29.75R
DIXON          FAIR      64  25  22 S23G31    29.81F
RAWLINS        FAIR      59  28  30 SW18G30   29.77R
SARATOGA       FAIR      59  27  29 SW16G33   29.81S
LARAMIE        FAIR      54  23  30 S15       29.84S
CHEYENNE       FAIR      40  30  67 W8        29.81F WCI  34
TORRINGTON     FAIR      48  36  63 E8        29.72S
PINE BLUFFS    FAIR      36  32  87 MISG      29.79F

$$




USA.gov is the U.S. government's official web portal to all federal, state and local government web resources and services.